Time,TemperatureF,DewpointF,PressureIn,WindDirection,WindDirectionDegrees,WindSpeedMPH,WindSpeedGustMPH,Humidity,HourlyPrecipIn,Conditions,Clouds,dailyrainin,SoftwareType,DateUTC
2013-08-22 00:07:00,74.4,67.0,29.92,NNE,17,10.0,-999.0,78,-99.99,,,0.00,weatherlink.com 1.10,2013-08-21 21:07:00,
2013-08-22 00:23:00,74.4,67.0,29.92,NE,40,6.0,-999.0,77,-99.99,,,0.00,weatherlink.com 1.10,2013-08-21 21:23:00,
2013-08-22 00:38:00,74.4,67.0,29.92,North,356,9.0,-999.0,77,-99.99,,,0.00,weatherlink.com 1.10,2013-08-21 21:38:00,
2013-08-22 00:53:00,74.2,67.0,29.92,NE,54,12.0,-999.0,77,-99.99,,,0.00,weatherlink.com 1.10,2013-08-21 21:53:00,
2013-08-22 01:08:00,74.4,66.0,29.91,ENE,58,7.0,-999.0,75,-99.99,,,0.00,weatherlink.com 1.10,2013-08-21 22:08:00,
2013-08-22 01:23:00,74.4,66.0,29.91,NNE,27,10.0,-999.0,75,-99.99,,,0.00,weatherlink.com 1.10,2013-08-21 22:23:00,
2013-08-22 01:38:00,74.4,65.0,29.91,NE,45,11.0,-999.0,73,-99.99,,,0.00,weatherlink.com 1.10,2013-08-21 22:38:00,
2013-08-22 01:53:00,74.4,65.0,29.91,NE,37,5.0,-999.0,73,-99.99,,,0.00,weatherlink.com 1.10,2013-08-21 22:53:00,
2013-08-22 02:08:00,74.2,65.0,29.91,ENE,58,10.0,-999.0,72,-99.99,,,0.00,weatherlink.com 1.10,2013-08-21 23:08:00,
2013-08-22 02:23:00,74.2,65.0,29.91,NE,44,6.0,-999.0,72,-99.99,,,0.00,weatherlink.com 1.10,2013-08-21 23:23:00,
2013-08-22 02:38:00,74.2,64.0,29.91,ENE,65,11.0,-999.0,71,-99.99,,,0.00,weatherlink.com 1.10,2013-08-21 23:38:00,
2013-08-22 02:53:00,74.0,64.0,29.91,NE,38,7.0,-999.0,71,-99.99,,,0.00,weatherlink.com 1.10,2013-08-21 23:53:00,
2013-08-22 03:08:00,74.0,63.0,29.91,NNE,27,6.0,-999.0,69,-99.99,,,0.00,weatherlink.com 1.10,2013-08-22 00:08:00,
2013-08-22 03:23:00,73.9,63.0,29.91,NE,37,11.0,-999.0,69,-99.99,,,0.00,weatherlink.com 1.10,2013-08-22 00:23:00,
2013-08-22 03:38:00,73.9,64.0,29.90,NE,40,13.0,-999.0,70,-99.99,,,0.00,weatherlink.com 1.10,2013-08-22 00:38:00,
2013-08-22 03:53:00,73.7,64.0,29.90,NNE,28,13.0,-999.0,71,-99.99,,,0.00,weatherlink.com 1.10,2013-08-22 00:53:00,
2013-08-22 04:08:00,73.7,65.0,29.89,ENE,72,8.0,-999.0,73,-99.99,,,0.00,weatherlink.com 1.10,2013-08-22 01:08:00,
2013-08-22 04:23:00,73.5,64.0,29.89,NE,34,7.0,-999.0,73,-99.99,,,0.00,weatherlink.com 1.10,2013-08-22 01:23:00,
2013-08-22 04:39:00,73.5,64.0,29.88,NE,54,6.0,-999.0,73,-99.99,,,0.00,weatherlink.com 1.10,2013-08-22 01:39:00,
2013-08-22 04:54:00,73.3,65.0,29.88,NNE,24,10.0,-999.0,74,-99.99,,,0.00,weatherlink.com 1.10,2013-08-22 01:54:00,
2013-08-22 05:09:00,73.3,65.0,29.88,NE,40,12.0,-999.0,74,-99.99,,,0.00,weatherlink.com 1.10,2013-08-22 02:09:00,
2013-08-22 05:24:00,73.0,65.0,29.88,ENE,58,8.0,-999.0,75,-99.99,,,0.00,weatherlink.com 1.10,2013-08-22 02:24:00,
2013-08-22 05:39:00,72.8,65.0,29.88,NE,54,9.0,-999.0,76,-99.99,,,0.00,weatherlink.com 1.10,2013-08-22 02:39:00,
2013-08-22 05:54:00,72.8,65.0,29.88,NE,38,7.0,-999.0,76,-99.99,,,0.00,weatherlink.com 1.10,2013-08-22 02:54:00,
2013-08-22 06:09:00,72.7,64.0,29.88,NE,40,12.0,-999.0,75,-99.99,,,0.00,weatherlink.com 1.10,2013-08-22 03:09:00,
2013-08-22 06:24:00,72.7,64.0,29.88,North,0,7.0,-999.0,75,-99.99,,,0.00,weatherlink.com 1.10,2013-08-22 03:24:00,
2013-08-22 06:39:00,72.7,64.0,29.89,NE,34,6.0,-999.0,75,-99.99,,,0.00,weatherlink.com 1.10,2013-08-22 03:39:00,
2013-08-22 06:54:00,72.7,65.0,29.89,NE,55,12.0,-999.0,76,-99.99,,,0.00,weatherlink.com 1.10,2013-08-22 03:54:00,
2013-08-22 07:09:00,72.8,65.0,29.89,NE,51,9.0,-999.0,76,-99.99,,,0.00,weatherlink.com 1.10,2013-08-22 04:09:00,
2013-08-22 07:24:00,73.5,65.0,29.89,NE,40,12.0,-999.0,75,-99.99,,,0.00,weatherlink.com 1.10,2013-08-22 04:24:00,
2013-08-22 07:39:00,74.0,65.0,29.89,NNE,30,8.0,-999.0,74,-99.99,,,0.00,weatherlink.com 1.10,2013-08-22 04:39:00,
2013-08-22 07:54:00,74.6,65.0,29.89,NNE,25,5.0,-999.0,73,-99.99,,,0.00,weatherlink.com 1.10,2013-08-22 04:54:00,
2013-08-22 08:09:00,74.9,65.0,29.89,ENE,64,10.0,-999.0,71,-99.99,,,0.00,weatherlink.com 1.10,2013-08-22 05:09:00,
2013-08-22 08:24:00,75.8,65.0,29.89,NNE,30,14.0,-999.0,69,-99.99,,,0.00,weatherlink.com 1.10,2013-08-22 05:24:00,
2013-08-22 08:39:00,75.8,64.0,29.89,ENE,78,6.0,-999.0,66,-99.99,,,0.00,weatherlink.com 1.10,2013-08-22 05:39:00,
2013-08-22 08:54:00,76.3,64.0,29.89,NNE,18,12.0,-999.0,66,-99.99,,,0.00,weatherlink.com 1.10,2013-08-22 05:54:00,
2013-08-22 09:09:00,76.1,64.0,29.89,NNE,18,13.0,-999.0,66,-99.99,,,0.00,weatherlink.com 1.10,2013-08-22 06:09:00,
2013-08-22 09:24:00,76.7,64.0,29.89,NE,45,17.0,-999.0,65,-99.99,,,0.00,weatherlink.com 1.10,2013-08-22 06:24:00,
2013-08-22 09:39:00,77.0,64.0,29.89,NE,37,16.0,-999.0,64,-99.99,,,0.00,weatherlink.com 1.10,2013-08-22 06:39:00,
2013-08-22 09:54:00,77.6,64.0,29.89,ENE,61,7.0,-999.0,64,-99.99,,,0.00,weatherlink.com 1.10,2013-08-22 06:54:00,
2013-08-22 10:09:00,77.7,65.0,29.89,North,10,11.0,-999.0,65,-99.99,,,0.00,weatherlink.com 1.10,2013-08-22 07:09:00,
2013-08-22 10:24:00,77.4,65.0,29.89,NE,40,20.0,-999.0,66,-99.99,,,0.00,weatherlink.com 1.10,2013-08-22 07:24:00,
2013-08-22 10:39:00,77.6,65.0,29.89,NE,45,12.0,-999.0,66,-99.99,,,0.00,weatherlink.com 1.10,2013-08-22 07:39:00,
2013-08-22 10:54:00,77.9,65.0,29.89,NNE,27,13.0,-999.0,65,-99.99,,,0.00,weatherlink.com 1.10,2013-08-22 07:54:00,
2013-08-22 11:09:00,77.9,65.0,29.89,North,11,10.0,-999.0,65,-99.99,,,0.00,weatherlink.com 1.10,2013-08-22 08:09:00,
2013-08-22 11:24:00,78.1,65.0,29.89,NNE,32,17.0,-999.0,64,-99.99,,,0.00,weatherlink.com 1.10,2013-08-22 08:24:00,
2013-08-22 11:39:00,78.1,64.0,29.89,NNE,17,7.0,-999.0,63,-99.99,,,0.00,weatherlink.com 1.10,2013-08-22 08:39:00,
2013-08-22 11:54:00,78.5,65.0,29.89,NE,42,10.0,-999.0,63,-99.99,,,0.00,weatherlink.com 1.10,2013-08-22 08:54:00,
2013-08-22 12:10:00,79.0,65.0,29.89,NNE,21,13.0,-999.0,63,-99.99,,,0.00,weatherlink.com 1.10,2013-08-22 09:10:00,
2013-08-22 12:25:00,78.5,64.0,29.90,NE,52,12.0,-999.0,61,-99.99,,,0.00,weatherlink.com 1.10,2013-08-22 09:25:00,
2013-08-22 12:40:00,78.8,64.0,29.89,ENE,65,12.0,-999.0,60,-99.99,,,0.00,weatherlink.com 1.10,2013-08-22 09:40:00,
2013-08-22 12:55:00,79.4,65.0,29.89,NE,37,13.0,-999.0,61,-99.99,,,0.00,weatherlink.com 1.10,2013-08-22 09:55:00,
2013-08-22 13:10:00,79.0,64.0,29.89,ENE,73,11.0,-999.0,61,-99.99,,,0.00,weatherlink.com 1.10,2013-08-22 10:10:00,
2013-08-22 13:25:00,79.2,65.0,29.89,NE,38,20.0,-999.0,62,-99.99,,,0.00,weatherlink.com 1.10,2013-08-22 10:25:00,
2013-08-22 13:40:00,79.6,65.0,29.89,NE,45,17.0,-999.0,61,-99.99,,,0.00,weatherlink.com 1.10,2013-08-22 10:40:00,
2013-08-22 15:40:00,79.0,67.0,29.88,NE,38,13.0,-999.0,66,-99.99,,,0.00,weatherlink.com 1.10,2013-08-22 12:40:00,
2013-08-22 15:55:00,78.1,67.0,29.88,NNE,31,13.0,-999.0,68,-99.99,,,0.00,weatherlink.com 1.10,2013-08-22 12:55:00,
2013-08-22 16:10:00,78.3,66.0,29.89,NE,44,19.0,-999.0,67,-99.99,,,0.00,weatherlink.com 1.10,2013-08-22 13:10:00,
2013-08-22 16:25:00,78.3,67.0,29.89,NNE,20,24.0,-999.0,68,-99.99,,,0.00,weatherlink.com 1.10,2013-08-22 13:25:00,
2013-08-22 16:40:00,77.6,68.0,29.89,North,11,16.0,-999.0,72,-99.99,,,0.00,weatherlink.com 1.10,2013-08-22 13:40:00,
2013-08-22 16:55:00,78.1,68.0,29.89,NE,37,17.0,-999.0,70,-99.99,,,0.00,weatherlink.com 1.10,2013-08-22 13:55:00,
2013-08-22 17:10:00,77.9,67.0,29.89,NNE,20,14.0,-999.0,69,-99.99,,,0.00,weatherlink.com 1.10,2013-08-22 14:10:00,
2013-08-22 17:25:00,77.6,66.0,29.88,NNE,14,13.0,-999.0,67,-99.99,,,0.00,weatherlink.com 1.10,2013-08-22 14:25:00,
2013-08-22 17:40:00,77.4,66.0,29.88,NNE,13,14.0,-999.0,69,-99.99,,,0.00,weatherlink.com 1.10,2013-08-22 14:40:00,
2013-08-22 17:55:00,77.2,68.0,29.88,NE,44,9.0,-999.0,72,-99.99,,,0.00,weatherlink.com 1.10,2013-08-22 14:55:00,
2013-08-22 18:10:00,77.2,68.0,29.88,NE,52,11.0,-999.0,73,-99.99,,,0.00,weatherlink.com 1.10,2013-08-22 15:10:00,
2013-08-22 18:25:00,76.7,69.0,29.87,NE,38,17.0,-999.0,77,-99.99,,,0.00,weatherlink.com 1.10,2013-08-22 15:25:00,
2013-08-22 18:40:00,76.1,68.0,29.87,North,11,6.0,-999.0,77,-99.99,,,0.00,weatherlink.com 1.10,2013-08-22 15:40:00,
2013-08-22 18:55:00,76.1,70.0,29.87,NNE,30,10.0,-999.0,80,-99.99,,,0.00,weatherlink.com 1.10,2013-08-22 15:55:00,
2013-08-22 19:10:00,76.0,70.0,29.87,NE,37,12.0,-999.0,81,-99.99,,,0.00,weatherlink.com 1.10,2013-08-22 16:10:00,
2013-08-22 19:25:00,75.8,71.0,29.87,North,11,6.0,-999.0,84,-99.99,,,0.00,weatherlink.com 1.10,2013-08-22 16:25:00,
2013-08-22 19:40:00,75.6,72.0,29.88,NE,40,11.0,-999.0,87,-99.99,,,0.00,weatherlink.com 1.10,2013-08-22 16:40:00,
2013-08-22 19:55:00,75.3,72.0,29.88,NNE,21,10.0,-999.0,89,-99.99,,,0.00,weatherlink.com 1.10,2013-08-22 16:55:00,
2013-08-22 20:10:00,74.9,71.0,29.87,NNE,31,11.0,-999.0,88,-99.99,,,0.00,weatherlink.com 1.10,2013-08-22 17:10:00,
2013-08-22 20:25:00,74.9,71.0,29.88,NE,54,9.0,-999.0,86,-99.99,,,0.00,weatherlink.com 1.10,2013-08-22 17:25:00,
2013-08-22 20:40:00,74.6,71.0,29.88,NNE,30,8.0,-999.0,87,-99.99,,,0.00,weatherlink.com 1.10,2013-08-22 17:40:00,
2013-08-22 20:55:00,74.6,71.0,29.88,North,4,5.0,-999.0,89,-99.99,,,0.00,weatherlink.com 1.10,2013-08-22 17:55:00,
2013-08-22 21:10:00,74.4,72.0,29.89,ENE,61,7.0,-999.0,91,-99.99,,,0.00,weatherlink.com 1.10,2013-08-22 18:10:00,
2013-08-22 21:25:00,74.2,72.0,29.89,ENE,61,10.0,-999.0,92,-99.99,,,0.00,weatherlink.com 1.10,2013-08-22 18:25:00,
2013-08-22 21:40:00,74.0,72.0,29.89,NE,40,6.0,-999.0,93,-99.99,,,0.00,weatherlink.com 1.10,2013-08-22 18:40:00,
2013-08-22 21:55:00,74.0,72.0,29.89,NNE,23,2.0,-999.0,93,-99.99,,,0.00,weatherlink.com 1.10,2013-08-22 18:55:00,
2013-08-22 22:10:00,74.0,72.0,29.89,NE,52,5.0,-999.0,93,-99.99,,,0.00,weatherlink.com 1.10,2013-08-22 19:10:00,
2013-08-22 22:25:00,73.9,72.0,29.89,NNE,32,7.0,-999.0,94,-99.99,,,0.00,weatherlink.com 1.10,2013-08-22 19:25:00,
2013-08-22 22:40:00,73.9,72.0,29.89,NNE,32,4.0,-999.0,94,-99.99,,,0.00,weatherlink.com 1.10,2013-08-22 19:40:00,
2013-08-22 22:55:00,74.0,72.0,29.89,NNE,13,6.0,-999.0,94,-99.99,,,0.00,weatherlink.com 1.10,2013-08-22 19:55:00,
2013-08-22 23:10:00,73.9,72.0,29.89,NNE,28,7.0,-999.0,94,-99.99,,,0.00,weatherlink.com 1.10,2013-08-22 20:10:00,
2013-08-22 23:25:00,73.7,72.0,29.89,NE,52,5.0,-999.0,94,-99.99,,,0.00,weatherlink.com 1.10,2013-08-22 20:25:00,
2013-08-22 23:40:00,73.7,72.0,29.89,NNE,31,6.0,-999.0,94,-99.99,,,0.00,weatherlink.com 1.10,2013-08-22 20:40:00,
2013-08-22 23:55:00,73.5,72.0,29.89,NE,40,5.0,-999.0,94,-99.99,,,0.00,weatherlink.com 1.10,2013-08-22 20:55:00,